Regional Weather Roundup
Issued by NWS

Home | Current Version | Previous Version | Graphics & Text | Print | Product List | Glossary Off
Versions: 1 2 3 4 5 6 7 8 9 10 11 12 13 14 15 16 17 18 19 20 21 22 23 24 25 26 27 28 29 30 31 32 33 34 35 36 37 38 39 40 41 42 43 44 45 46 47 48 49 50

000
ASUS43 KMPX 042210
RWRMN
WEATHER ROUNDUP FOR MINNESOTA
NATIONAL WEATHER SERVICE TWIN CITIES/CHANHASSEN MN
500 PM CDT FRI SEP 04 2015


NOTE: "FAIR" INDICATES FEW OR NO CLOUDS BELOW 12,000 FEET WITH NO
SIGNIFICANT WEATHER AND/OR OBSTRUCTIONS TO VISIBILITY. N/A MEANS
CURRENT SKY AND/OR WEATHER CONDITIONS ARE NOT AVAILABLE.

MNZ060>063-068>070-042300-
   Twin Cities Metro

CITY           SKY/WX    TMP DP  RH WIND       PRES   REMARKS
TWIN CITIES    PTSUNNY   87  73  62 SE10      29.89S HX  94
ST PAUL        SUNNY     87  74  64 SE15      29.89F HX  95
CRYSTAL        MOSUNNY   88  72  58 SE13G23   29.87F HX  94
BLAINE         MOSUNNY   90  73  58 SE10      29.89F HX  98
LAKEVILLE      MOSUNNY   86  72  62 S9G16     29.90S HX  92
EDEN PRAIRIE   MOSUNNY   87  73  62 SE15      29.88S HX  94
SOUTH ST PAUL  SUNNY     88  71  57 SE7       29.90S HX  94
LAKE ELMO      FAIR      86  73  66 SE10      29.92S HX  93
$$
MNZ001>005-007-008-013>017-022>024-027-028-042300-
   Northwest Minnesota

CITY           SKY/WX    TMP DP  RH WIND       PRES   REMARKS
BEMIDJI        CLOUDY    79  71  74 SE8       29.89R
HALLOCK        RAIN      68  66  94 E3        29.80F
ROSEAU         CLOUDY    77  72  83 SE6       29.84S
WARROAD        CLOUDY    81  73  78 S9        29.85S
THIEF RVR FALL CLOUDY    75  72  88 S8        29.86R
CROOKSTON      LGT RAIN  75  70  83 S7        29.84R
FOSSTON        LGT RAIN  79  70  73 S9        29.88S
DETROIT LAKES  LGT RAIN  79  70  73 CALM      29.88S
MOORHEAD       CLOUDY    77  72  83 SE3       29.82S
PARK RAPIDS    CLOUDY    84  71  65 SE10      29.87S
MAHNOMEN       FAIR      77  71  83 CALM      29.87R
$$
MNZ006-009>011-018-025>026-042300-
   North Central Minnesota

CITY           SKY/WX    TMP DP  RH WIND       PRES   REMARKS
BAUDETTE       CLOUDY    83  71  67 S10       29.87R
FLAG ISLAND    CLOUDY    73  70  88 S7        29.84S
INTL FALLS     MOSUNNY   83  70  64 SE10      29.89R
WASKISH        CLOUDY    82  72  69 SE5       29.87S
BIG FORK       PTSUNNY   84  70  61 SE7       29.91R
LONGVILLE      CLOUDY    82  72  69 SE10      29.89R
GRAND RAPIDS     N/A     82  70  65 SE10G16   29.91R
CRANE LAKE     MOSUNNY   81  64  57 SE6       29.95S
ORR            MOSUNNY   82  66  57 SE9       29.90S
COOK           SUNNY     82  68  61 SE8G16    29.94S
WALKER         FAIR      80  71  74 SE6       29.89S
$$
MNZ012-019>021-037-042300-
   Northeast Minnesota

CITY           SKY/WX    TMP DP  RH WIND       PRES   REMARKS
DULUTH         MOSUNNY   76  66  71 E13       29.96S
ELY            MOSUNNY   79  63  57 SE12      29.98S
HIBBING        SUNNY     80  69  69 SE14G21   29.94R
EVELETH        SUNNY     81  68  65 SE10G18   29.97R
DULUTH HARBOR  SUNNY     63  59  88 E9        29.97S
TWO HARBORS    SUNNY     79  66  65 NE14G20   29.96S
SILVER BAY     PTSUNNY   72  63  73 NE7       30.00R
GRAND MARAIS     N/A     71  58  63 NE10G18   30.01F
G MARAIS ARPRT SUNNY     73  57  56 E6        30.07S
$$
MNZ029>031-032-039>041-046>048-054>057-064-042300-
   West Central Minnesota

CITY           SKY/WX    TMP DP  RH WIND       PRES   REMARKS
FERGUS FALLS   MOSUNNY   82  70  65 SE10      29.81F
WHEATON        PTSUNNY   81  70  69 SE13      29.83S
MORRIS         PTSUNNY   81  73  78 SE6       29.83R THUNDER
ALEXANDRIA     PTSUNNY   83  72  69 S7        29.87S
ELBOW LAKE     PTSUNNY   80  73  79 SE6       29.83F HAZE
WADENA         CLOUDY    82  72  69 S9        29.87R
GLENWOOD       PTSUNNY   82  72  69 S9        29.87S THUNDER
APPLETON       CLOUDY    81  72  74 S10       29.84R
BENSON         TSTM      81  72  74 S7        29.85R
ORTONVILLE     CLOUDY    82  72  69 SE10      29.83S
MADISON        CLOUDY    81  73  78 S10       29.85S
WILLMAR        FAIR      84  72  65 S3        29.88R
$$
MNZ033>034-036-042>043-049>051-058-059-042300-
   Central Minnesota

CITY           SKY/WX    TMP DP  RH WIND       PRES   REMARKS
ST CLOUD       MOSUNNY   88  74  63 SE14G24   29.86F HX  96
SAUK CENTRE    FAIR      86  72  63 SE10G16   29.86S HX  92
PAYNESVILLE    MOSUNNY   88  71  56 E10G21    29.88R HX  93
AITKIN         CLOUDY    84  73  70 SE7       29.88S HX  91
PINE RIVER     PTSUNNY   81  72  74 SE9       29.92R
BRAINERD       PTSUNNY   85  71  63 SE10G17   29.88S HX  90
STAPLES        PTSUNNY   82  72  69 S9        29.88R
LONG PRAIRIE   FAIR      86  72  62 SE10      29.88R HX  92
LITTLE FALLS   PTSUNNY   86  70  58 SE10      29.87R HX  90
LITCHFIELD     PTSUNNY   90  75  62 S7        29.87R HX 100
BUFFALO        SUNNY     88  71  57 SE13      29.88F HX  94
MAPLE LAKE     SUNNY     86  76  71 SE5       29.87F HX  96
$$
MNZ037-044-045-052-053-042300-
   East Central Minnesota

CITY           SKY/WX    TMP DP  RH WIND       PRES   REMARKS
PRINCETON      MOSUNNY   90  73  58 SE9       29.88F HX  98
MORA           MOSUNNY   86  72  62 S10       29.92S HX  92
CAMBRIDGE        N/A     88  72  58 SE13      29.88S HX  94
RUSH CITY      SUNNY     84  72  65 SE9G16    29.91S HX  90
MOOSE LAKE     SUNNY     82  70  65 SE7       29.90S
HINCKLEY       FAIR      86  72  62 SE9       29.91S HX  92
CLOQUET        SUNNY     73  63  68 E10       29.95S
MCGREGOR       MOSUNNY   82  70  65 SE13      29.91R
$$
MNZ071>073-080-081-089-090-097-098-042300-
   Southwest Minnesota

CITY           SKY/WX    TMP DP  RH WIND       PRES   REMARKS
MONTEVIDEO     TSTM      81  70  69 SW9       29.87R
GRANITE FALLS  CLOUDY    79  72  78 SE8       29.88R
CANBY          CLOUDY    79  70  74 S7        29.87R
MARSHALL       CLOUDY    73  66  78 SE13      29.88R
REDWOOD FALLS  CLOUDY    83  73  72 S9        29.86S
OLIVIA         CLOUDY    81  68  65 S10G16    29.87R
PIPESTONE      CLOUDY    79  68  69 SE14G21   29.87F
WINDOM         LGT RAIN  79  72  78 S7        29.93R
WORTHINGTON    CLOUDY    75  70  83 SE7       29.92F
JACKSON        CLOUDY    81  72  74 S10       29.94R
TRACY          RAIN      76  71  85 S9        29.89F
SLAYTON        CLOUDY    75  71  88 CALM      29.91F
$$
MNZ065>067-074>077-082>085-091>093-042300-
   South Central Minnesota

CITY           SKY/WX    TMP DP  RH WIND       PRES   REMARKS
MANKATO        PTSUNNY   86  73  66 S12       29.90S HX  93
NEW ULM        CLOUDY    86  72  62 S13       29.88S HX  92
ST JAMES       CLOUDY    84  73  70 S7        29.91R HX  91
FAIRMONT       CLOUDY    84  68  58 S10       29.91R
GLENCOE        MOSUNNY   91  76  60 S8G16     29.87S HX 103
FARIBAULT      MOSUNNY   88  73  62 SE9       29.92R HX  96
OWATONNA       MOSUNNY   88  72  58 SE12      29.92S HX  94
WASECA         MOSUNNY   82  72  69 S6        29.93R
ALBERT LEA     MOSUNNY   86  72  62 S10G16    29.93R HX  92
$$
MNZ078>079-086>088-094>096-042300-
   Southeast Minnesota

CITY           SKY/WX    TMP DP  RH WIND       PRES   REMARKS
ROCHESTER      SUNNY     85  72  65 SE12      29.95F HX  91
RED WING       SUNNY     88  72  58 SE13      29.90F HX  94
STANTON        SUNNY     88  71  56 SE12      29.90S HX  94
DODGE CENTER   SUNNY     84  72  65 CALM      29.95R
WINONA         MOSUNNY   90  72  55 SE9       29.94S HX  96
AUSTIN         SUNNY     86  72  62 S12       29.94S HX  92
PRESTON        SUNNY     86  69  56 S8        29.96F HX  90
$$
ABBREVIATIONS USED IN REMARKS
   TC - TEMPERATURES IN CELSIUS
  WCI - WIND CHILL INDEX
   HX - HEAT INDEX
  VSB - VISIBILITY
$$



USA.gov is the U.S. government's official web portal to all federal, state and local government web resources and services.